Showing default

LINUSS1, 55246

Orbit data source: Space-Track

LINUSS1, 55246 is a payload satellite owned by LMSS Denver (US) in GEO that was launched on Tue, 01 Nov 2022 UTC via an FALCON HEAVY launch vehicle from the Air Force Eastern Test Range (AFETR). Payload-class satellites include a variety of spacecraft equipped with specific instruments for various scientific and technological missions. These include communications satellites like Starlink; space stations such as the ISS; scientific satellites like the Hubble; Earth observation satellites from companies like Planet Labs, Umbra, and HawkEye 360; GPS; miniature CubeSats for education and research; and military/defense satellites.

Not visible in the next 10 days
Identifier
55246, 2022-144G
Orbit
GEO
Country
Flag of USUS
Related business
Manufacturer
TYVAK/LMSSD
Mission
Operational Commercial Technology
Bus & Motor
CUBESAT 12U, Unknown motor
Mass
21.5 kg wet, 19.2 kg dry
Launch date (UTC)
2022-11-01 (3 years ago)
Launch vehicle
FALCON HEAVY
Launch site
Air Force Eastern Test Range (AFETR)
Object type
Payload
Rocket body
Debris
Shape & HBR
Box + 2 Pan, 0.7 m
Radar Cross Section
0.512 m²

Expand to show TLE details & history
Last TLE update: 7 hours ago

TLE from 7 hours ago
0 LINUSS1
1 55246U 22144G   25346.98505366 -.00000229  00000-0  00000-0 0  9991
2 55246   4.9244  65.4989 0008874 282.1354  65.5197  0.99057224  9819
Epoch: 2025-12-12T23:38Z
TLE epoch observation values (Epoch: 2025-12-12T23:38:28.636Z)
Latitude
-1.02808°
Longitude
-23.25192°
Altitude
36,114.659 km
Speed
3.063 km/s
True Right ascension
03h 33m 08s
True Declination
-1° 01' 37"
Sunlit
Object was in daylight at epoch
Visualization orbit readout
Latitude
Unknown
Longitude
Unknown
Altitude
Unknown
Speed
Unknown
Apparent Right ascension
Unknown
Apparent Declination
Unknown
Sunlit
N/A
Visualization observer readout
Local Sidereal Time
05:22:30
Azimuth
Unknown
Elevation
Unknown
Doppler factor
Unknown
Orbital elements
Apogee altitude
36,169.329 km
Perigee altitude
36,093.882 km
Semi-major axis
42,509.742 km
Eccentricity
0.00089
Inclination
4.9244°
RAAN
65.4989°
Arg. of periapsis
282.1354°
True anomaly
65.61229°
Mean anomaly
65.5197°
Eccentric anomaly
65.56599°
Mean motion
0.24763 °/min
Orbital period
1,453.76 mins
BSTAR
0
Loading maneuver chart data...
Computing Atmospheric mass density...
Loading historical data...
Loading historical data...
Loading historical data...
Loading historical data...
Loading historical data...
Loading historical data...
Loading historical data...

Documentation

Showing up to 5 results
|